QPF
0.00 0.01 0.04 0.07 0.04 0.07 0.07 0.02 0.01 0.00 0.00 0.02 0.01 0.00 0.00 0.00 0.00 0.00 0.00 0.00 0.00 0.00 0.00 0.00 0.00 0.00 0.00 0.00 0.00 0.00 0.00 0.00 0.00 0.00 0.00 0.00 0.00 0.00
0.02 0.03 0.07 0.14 0.09 0.09 0.08 0.05 0.03 0.01 0.01 0.05 0.04 0.02 0.00 0.00 0.00 0.00 0.00 0.00 0.00 0.00 0.00 0.00 0.00 0.00 0.00 0.00 0.00 0.00 0.00 0.00 0.00 0.00 0.00 0.00 0.00 0.00
0.03 0.06 0.10 0.15 0.14 0.09 0.07 0.07 0.08 0.06 0.03 0.05 0.05 0.03 0.00 0.00 0.00 0.00 0.00 0.00 0.00 0.00 0.00 0.00 0.00 0.00 0.00 0.00 0.00 0.00 0.00 0.00 0.00 0.00 0.00 0.00 0.00 0.00
0.03 0.08 0.12 0.15 0.16 0.15 0.10 0.08 0.12 0.11 0.07 0.04 0.05 0.05 0.01 0.00 0.00 0.00 0.00 0.00 0.00 0.00 0.00 0.00 0.00 0.00 0.00 0.00 0.00 0.00 0.00 0.00 0.00 0.00 0.00 0.00 0.00 0.00
0.02 0.06 0.08 0.13 0.21 0.25 0.18 0.15 0.15 0.15 0.11 0.05 0.04 0.06 0.03 0.01 0.00 0.00 0.00 0.00 0.00 0.00 0.00 0.00 0.00 0.00 0.00 0.00 0.00 0.00 0.00 0.00 0.00 0.00 0.00 0.00 0.00 0.00
0.06 0.08 0.11 0.16 0.22 0.30 0.28 0.24 0.23 0.17 0.15 0.10 0.05 0.02 0.01 0.01 0.01 0.00 0.00 0.00 0.01 0.01 0.01 0.01 0.01 0.01 0.01 0.01 0.00 0.00 0.00 0.00 0.00 0.00 0.00 0.00 0.00 0.00
0.04 0.05 0.07 0.10 0.12 0.16 0.22 0.26 0.26 0.21 0.17 0.12 0.08 0.04 0.01 0.01 0.01 0.01 0.01 0.01 0.03 0.06 0.04 0.03 0.04 0.05 0.03 0.02 0.01 0.00 0.00 0.00 0.00 0.00 0.00 0.00 0.00 0.00
0.01 0.01 0.01 0.01 0.04 0.07 0.09 0.13 0.17 0.20 0.22 0.19 0.13 0.05 0.02 0.01 0.01 0.01 0.01 0.02 0.03 0.07 0.08 0.05 0.05 0.08 0.07 0.02 0.01 0.00 0.00 0.00 0.00 0.00 0.00 0.00 0.00 0.00
0.00 0.00 0.00 0.00 0.00 0.01 0.01 0.02 0.03 0.03 0.05 0.10 0.14 0.08 0.03 0.02 0.01 0.01 0.01 0.00 0.01 0.01 0.02 0.02 0.02 0.04 0.09 0.06 0.03 0.01 0.01 0.00 0.00 0.00 0.00 0.00 0.00 0.00
0.00 0.00 0.00 0.00 0.00 0.00 0.00 0.00 0.00 0.00 0.01 0.02 0.03 0.05 0.04 0.03 0.02 0.02 0.01 0.01 0.01 0.01 0.01 0.01 0.03 0.04 0.08 0.08 0.05 0.03 0.01 0.01 0.03 0.04 0.03 0.02 0.02 0.01
0.00 0.00 0.00 0.00 0.00 0.00 0.00 0.00 0.00 0.00 0.00 0.01 0.02 0.04 0.06 0.06 0.05 0.03 0.02 0.01 0.02 0.04 0.03 0.03 0.02 0.02 0.05 0.08 0.05 0.04 0.04 0.04 0.07 0.10 0.10 0.08 0.06 0.04
0.00 0.00 0.00 0.00 0.00 0.00 0.00 0.00 0.00 0.00 0.00 0.00 0.00 0.00 0.01 0.01 0.01 0.01 0.01 0.01 0.01 0.02 0.03 0.02 0.02 0.02 0.02 0.05 0.04 0.04 0.05 0.07 0.09 0.10 0.11 0.10 0.09 0.07
0.00 0.00 0.00 0.00 0.00 0.00 0.00 0.00 0.00 0.00 0.00 0.00 0.00 0.00 0.00 0.00 0.00 0.00 0.00 0.00 0.01 0.02 0.02 0.02 0.02 0.01 0.01 0.01 0.01 0.01 0.02 0.04 0.07 0.09 0.11 0.13 0.15 0.13
0.00 0.00 0.00 0.00 0.00 0.00 0.00 0.00 0.00 0.00 0.00 0.00 0.00 0.00 0.00 0.00 0.00 0.00 0.00 0.00 0.00 0.00 0.00 0.01 0.02 0.02 0.01 0.00 0.00 0.00 0.01 0.01 0.02 0.03 0.04 0.05 0.07 0.06
0.00 0.00 0.00 0.00 0.00 0.00 0.00 0.00 0.00 0.00 0.00 0.00 0.00 0.00 0.00 0.00 0.00 0.00 0.00 0.00 0.00 0.00 0.00 0.00 0.00 0.00 0.00 0.00 0.00 0.00 0.00 0.00 0.00 0.01 0.01 0.00 0.01 0.01
0.00 0.00 0.00 0.00 0.00 0.00 0.00 0.00 0.00 0.00 0.00 0.00 0.00 0.00 0.00 0.00 0.00 0.00 0.00 0.00 0.00 0.00 0.00 0.00 0.00 0.00 0.00 0.00 0.00 0.00 0.00 0.00 0.00 0.00 0.00 0.00 0.00 0.00
0.00 0.00 0.00 0.00 0.00 0.00 0.00 0.00 0.00 0.00 0.00 0.00 0.00 0.00 0.00 0.00 0.00 0.00 0.00 0.00 0.00 0.00 0.00 0.00 0.00 0.00 0.00 0.00 0.00 0.00 0.00 0.00 0.00 0.00 0.00 0.00 0.00 0.00
0.00 0.00 0.00 0.00 0.00 0.00 0.00 0.00 0.00 0.00 0.00 0.00 0.00 0.00 0.00 0.00 0.00 0.00 0.00 0.00 0.00 0.00 0.00 0.00 0.00 0.00 0.00 0.00 0.00 0.00 0.00 0.00 0.00 0.00 0.00 0.00 0.00 0.00
0.00 0.00 0.00 0.00 0.00 0.00 0.00 0.00 0.00 0.00 0.00 0.00 0.00 0.00 0.00 0.00 0.00 0.00 0.00 0.00 0.00 0.00 0.00 0.00 0.00 0.00 0.00 0.00 0.00 0.00 0.00 0.00 0.00 0.00 0.00 0.00 0.00 0.00
0.00 0.00 0.00 0.00 0.00 0.00 0.00 0.00 0.00 0.00 0.00 0.00 0.00 0.00 0.00 0.00 0.00 0.00 0.00 0.00 0.00 0.00 0.00 0.00 0.00 0.00 0.00 0.00 0.00 0.00 0.00 0.00 0.00 0.00 0.00 0.00 0.00 0.00
0.00 0.00 0.00 0.00 0.00 0.00 0.00 0.00 0.00 0.00 0.00 0.00 0.00 0.00 0.00 0.00 0.00 0.00 0.00 0.00 0.00 0.00 0.00 0.00 0.00 0.00 0.00 0.00 0.00 0.00 0.00 0.00 0.00 0.00 0.00 0.00 0.00 0.00
0.00 0.00 0.00 0.00 0.00 0.00 0.00 0.00 0.00 0.00 0.00 0.00 0.00 0.00 0.00 0.00 0.00 0.00 0.00 0.00 0.00 0.00 0.00 0.00 0.00 0.00 0.00 0.00 0.00 0.00 0.00 0.00 0.00 0.00 0.00 0.00 0.00 0.00
0.00 0.00 0.00 0.00 0.00 0.00 0.00 0.00 0.00 0.00 0.00 0.00 0.00 0.00 0.00 0.00 0.00 0.00 0.00 0.00 0.00 0.00 0.00 0.00 0.00 0.00 0.00 0.00 0.00 0.00 0.00 0.00 0.00 0.00 0.00 0.00 0.00 0.00
MSLP
1015.03 1015.19 1015.37 1015.55 1015.69 1015.79 1015.83 1015.81 1015.73 1015.61 1015.46 1015.30 1015.14 1015.01 1014.92 1014.87 1014.89 1014.96 1015.10 1015.30 1015.55 1015.83 1016.14 1016.45 1016.75 1017.03 1017.29 1017.51 1017.71 1017.89 1018.04 1018.18 1018.30 1018.41 1018.49 1018.55 1018.57 1018.55
1014.64 1014.75 1014.87 1014.99 1015.11 1015.20 1015.25 1015.27 1015.26 1015.22 1015.17 1015.11 1015.06 1015.01 1014.98 1014.97 1014.99 1015.04 1015.13 1015.25 1015.41 1015.61 1015.83 1016.06 1016.31 1016.55 1016.77 1016.98 1017.18 1017.35 1017.51 1017.65 1017.77 1017.88 1017.96 1018.01 1018.02 1017.99
1014.36 1014.40 1014.45 1014.52 1014.60 1014.66 1014.72 1014.77 1014.81 1014.86 1014.90 1014.93 1014.97 1015.00 1015.02 1015.04 1015.05 1015.07 1015.10 1015.14 1015.22 1015.32 1015.46 1015.63 1015.81 1016.01 1016.21 1016.40 1016.59 1016.76 1016.92 1017.06 1017.19 1017.29 1017.37 1017.41 1017.43 1017.41
1014.24 1014.22 1014.21 1014.22 1014.24 1014.28 1014.32 1014.39 1014.47 1014.57 1014.69 1014.81 1014.92 1015.01 1015.07 1015.11 1015.11 1015.09 1015.06 1015.04 1015.03 1015.06 1015.12 1015.21 1015.34 1015.50 1015.67 1015.84 1016.01 1016.17 1016.31 1016.45 1016.56 1016.65 1016.73 1016.78 1016.80 1016.80
1014.32 1014.25 1014.19 1014.14 1014.11 1014.10 1014.13 1014.19 1014.29 1014.42 1014.58 1014.75 1014.91 1015.05 1015.15 1015.19 1015.18 1015.13 1015.06 1014.97 1014.90 1014.85 1014.85 1014.88 1014.96 1015.06 1015.19 1015.33 1015.47 1015.60 1015.72 1015.83 1015.92 1016.00 1016.07 1016.13 1016.17 1016.19
1014.60 1014.50 1014.40 1014.30 1014.22 1014.16 1014.15 1014.18 1014.27 1014.41 1014.58 1014.77 1014.96 1015.12 1015.23 1015.27 1015.26 1015.19 1015.08 1014.96 1014.84 1014.74 1014.68 1014.67 1014.69 1014.75 1014.83 1014.93 1015.02 1015.11 1015.18 1015.25 1015.31 1015.37 1015.43 1015.49 1015.55 1015.61
1015.04 1014.93 1014.80 1014.66 1014.53 1014.43 1014.36 1014.35 1014.40 1014.51 1014.67 1014.85 1015.04 1015.20 1015.31 1015.35 1015.34 1015.26 1015.14 1015.00 1014.85 1014.73 1014.63 1014.58 1014.56 1014.57 1014.60 1014.64 1014.68 1014.71 1014.73 1014.75 1014.77 1014.80 1014.84 1014.91 1014.99 1015.08
1015.57 1015.47 1015.33 1015.17 1015.00 1014.84 1014.73 1014.66 1014.66 1014.72 1014.83 1014.98 1015.14 1015.28 1015.38 1015.43 1015.41 1015.34 1015.22 1015.08 1014.93 1014.79 1014.68 1014.60 1014.55 1014.51 1014.49 1014.48 1014.45 1014.42 1014.39 1014.36 1014.34 1014.33 1014.36 1014.42 1014.52 1014.64
1016.11 1016.03 1015.90 1015.73 1015.53 1015.34 1015.17 1015.05 1014.99 1014.99 1015.05 1015.15 1015.27 1015.38 1015.46 1015.50 1015.49 1015.42 1015.32 1015.19 1015.05 1014.92 1014.81 1014.71 1014.63 1014.56 1014.50 1014.43 1014.35 1014.27 1014.18 1014.10 1014.04 1014.00 1014.01 1014.06 1014.16 1014.30
1016.60 1016.54 1016.42 1016.26 1016.06 1015.84 1015.64 1015.48 1015.37 1015.31 1015.32 1015.36 1015.43 1015.51 1015.57 1015.60 1015.59 1015.53 1015.45 1015.34 1015.22 1015.10 1014.99 1014.89 1014.80 1014.70 1014.60 1014.49 1014.37 1014.24 1014.11 1013.99 1013.89 1013.83 1013.81 1013.85 1013.94 1014.07
1016.97 1016.94 1016.85 1016.71 1016.52 1016.31 1016.10 1015.91 1015.77 1015.68 1015.63 1015.63 1015.66 1015.70 1015.73 1015.75 1015.74 1015.69 1015.62 1015.54 1015.43 1015.33 1015.23 1015.12 1015.02 1014.91 1014.78 1014.64 1014.49 1014.33 1014.17 1014.02 1013.89 1013.80 1013.76 1013.78 1013.84 1013.96
1017.21 1017.21 1017.15 1017.04 1016.88 1016.70 1016.50 1016.32 1016.17 1016.06 1015.99 1015.95 1015.95 1015.96 1015.97 1015.97 1015.95 1015.91 1015.85 1015.78 1015.69 1015.60 1015.50 1015.40 1015.28 1015.16 1015.02 1014.87 1014.69 1014.51 1014.33 1014.16 1014.02 1013.91 1013.84 1013.83 1013.86 1013.93
1017.33 1017.35 1017.32 1017.25 1017.14 1017.00 1016.84 1016.69 1016.55 1016.44 1016.36 1016.31 1016.29 1016.28 1016.27 1016.25 1016.23 1016.19 1016.13 1016.06 1015.98 1015.90 1015.80 1015.70 1015.58 1015.45 1015.31 1015.14 1014.96 1014.77 1014.59 1014.40 1014.24 1014.11 1014.02 1013.96 1013.95 1013.97
1017.35 1017.39 1017.40 1017.37 1017.30 1017.21 1017.10 1016.98 1016.88 1016.79 1016.71 1016.66 1016.63 1016.60 1016.58 1016.55 1016.52 1016.48 1016.42 1016.36 1016.28 1016.20 1016.11 1016.00 1015.89 1015.76 1015.61 1015.45 1015.27 1015.08 1014.89 1014.70 1014.53 1014.38 1014.25 1014.15 1014.08 1014.04
1017.33 1017.38 1017.40 1017.41 1017.38 1017.33 1017.27 1017.19 1017.11 1017.04 1016.99 1016.94 1016.90 1016.87 1016.84 1016.81 1016.77 1016.72 1016.67 1016.61 1016.55 1016.47 1016.39 1016.29 1016.18 1016.06 1015.92 1015.76 1015.59 1015.41 1015.22 1015.03 1014.84 1014.67 1014.51 1014.36 1014.24 1014.13
1017.32 1017.35 1017.39 1017.40 1017.40 1017.38 1017.34 1017.29 1017.23 1017.18 1017.12 1017.08 1017.04 1017.00 1016.97 1016.93 1016.90 1016.86 1016.82 1016.77 1016.72 1016.67 1016.60 1016.52 1016.43 1016.33 1016.20 1016.06 1015.90 1015.72 1015.54 1015.35 1015.15 1014.96 1014.76 1014.58 1014.39 1014.22
1017.35 1017.37 1017.39 1017.40 1017.39 1017.37 1017.33 1017.28 1017.22 1017.16 1017.10 1017.04 1016.99 1016.95 1016.91 1016.88 1016.85 1016.83 1016.81 1016.79 1016.77 1016.74 1016.71 1016.67 1016.61 1016.53 1016.43 1016.31 1016.17 1016.01 1015.83 1015.64 1015.44 1015.22 1015.00 1014.77 1014.54 1014.31
1017.46 1017.45 1017.44 1017.43 1017.39 1017.33 1017.26 1017.18 1017.09 1017.00 1016.91 1016.83 1016.76 1016.70 1016.66 1016.63 1016.61 1016.61 1016.62 1016.64 1016.66 1016.68 1016.69 1016.70 1016.68 1016.65 1016.59 1016.50 1016.39 1016.24 1016.08 1015.89 1015.68 1015.46 1015.21 1014.95 1014.68 1014.40
1017.66 1017.63 1017.58 1017.51 1017.42 1017.31 1017.18 1017.04 1016.90 1016.75 1016.61 1016.49 1016.39 1016.31 1016.25 1016.22 1016.21 1016.23 1016.27 1016.33 1016.40 1016.48 1016.55 1016.61 1016.66 1016.67 1016.66 1016.61 1016.53 1016.41 1016.27 1016.09 1015.88 1015.65 1015.39 1015.11 1014.81 1014.50
1017.95 1017.88 1017.79 1017.67 1017.52 1017.34 1017.14 1016.93 1016.71 1016.50 1016.30 1016.12 1015.97 1015.86 1015.78 1015.74 1015.73 1015.77 1015.84 1015.93 1016.05 1016.18 1016.31 1016.43 1016.53 1016.60 1016.64 1016.64 1016.60 1016.51 1016.39 1016.23 1016.03 1015.80 1015.54 1015.25 1014.94 1014.61
1018.30 1018.20 1018.07 1017.90 1017.69 1017.45 1017.18 1016.90 1016.61 1016.33 1016.06 1015.83 1015.62 1015.46 1015.35 1015.29 1015.27 1015.31 1015.39 1015.51 1015.66 1015.83 1016.01 1016.18 1016.34 1016.46 1016.55 1016.59 1016.59 1016.54 1016.44 1016.31 1016.13 1015.91 1015.66 1015.38 1015.07 1014.74
1018.66 1018.55 1018.39 1018.19 1017.93 1017.64 1017.32 1016.98 1016.64 1016.30 1015.98 1015.68 1015.43 1015.23 1015.07 1014.98 1014.94 1014.96 1015.03 1015.16 1015.32 1015.51 1015.71 1015.92 1016.11 1016.27 1016.39 1016.48 1016.51 1016.50 1016.43 1016.32 1016.17 1015.98 1015.75 1015.48 1015.19 1014.87
1018.97 1018.86 1018.70 1018.48 1018.21 1017.90 1017.56 1017.19 1016.81 1016.44 1016.08 1015.75 1015.46 1015.21 1015.01 1014.87 1014.80 1014.78 1014.83 1014.93 1015.08 1015.26 1015.47 1015.68 1015.88 1016.06 1016.21 1016.32 1016.38 1016.39 1016.36 1016.28 1016.15 1015.99 1015.79 1015.55 1015.28 1014.99
Thickness
5694 5693 5692 5692 5692 5692 5689 5687 5684 5682 5683 5687 5688 5690 5690 5688 5685 5683 5681 5677 5675 5672 5671 5670 5669 5669 5668 5667 5667 5667 5667 5667 5667 5667 5666 5666 5665 5663
5688 5688 5688 5687 5687 5688 5687 5686 5684 5682 5680 5683 5684 5686 5687 5685 5682 5681 5680 5677 5674 5672 5671 5671 5671 5672 5673 5672 5672 5672 5672 5672 5671 5669 5669 5669 5667 5666
5681 5682 5683 5683 5682 5684 5684 5683 5682 5681 5678 5680 5681 5682 5683 5683 5681 5680 5680 5678 5676 5676 5675 5675 5675 5676 5676 5676 5676 5676 5676 5675 5674 5673 5673 5672 5671 5669
5672 5675 5677 5678 5678 5679 5681 5681 5680 5679 5678 5676 5677 5677 5678 5680 5679 5678 5678 5678 5678 5679 5679 5679 5679 5680 5680 5680 5680 5679 5679 5679 5678 5677 5676 5675 5673 5672
5663 5666 5668 5671 5672 5674 5676 5677 5676 5675 5675 5674 5673 5672 5674 5675 5675 5674 5675 5676 5679 5681 5682 5682 5682 5683 5682 5683 5682 5682 5681 5680 5680 5679 5678 5677 5675 5673
5653 5655 5658 5661 5665 5668 5670 5671 5670 5669 5669 5669 5667 5668 5669 5670 5670 5670 5670 5672 5675 5679 5681 5681 5682 5682 5683 5684 5684 5684 5683 5682 5681 5680 5679 5678 5676 5674
5641 5643 5646 5651 5655 5659 5662 5663 5664 5663 5662 5661 5660 5661 5662 5664 5664 5664 5665 5667 5670 5673 5676 5677 5678 5679 5680 5682 5683 5685 5685 5685 5684 5682 5680 5678 5676 5673
5630 5632 5636 5640 5645 5648 5651 5654 5656 5656 5656 5655 5653 5653 5655 5658 5660 5660 5661 5663 5664 5667 5669 5670 5672 5673 5674 5675 5678 5682 5684 5684 5684 5683 5681 5679 5676 5672
5619 5621 5624 5627 5633 5638 5641 5643 5645 5646 5648 5649 5647 5647 5648 5650 5654 5656 5656 5658 5659 5662 5663 5664 5666 5667 5668 5669 5672 5675 5679 5681 5681 5680 5680 5678 5675 5672
5610 5611 5614 5616 5621 5626 5629 5631 5632 5634 5636 5638 5640 5640 5641 5643 5646 5648 5649 5651 5654 5655 5656 5657 5658 5659 5661 5661 5664 5667 5671 5674 5675 5675 5674 5674 5672 5669
5600 5603 5606 5608 5611 5615 5617 5618 5620 5622 5624 5627 5629 5632 5634 5636 5638 5640 5641 5644 5646 5648 5647 5648 5649 5651 5654 5655 5657 5660 5663 5666 5668 5668 5669 5669 5667 5665
5591 5594 5597 5599 5601 5604 5606 5608 5609 5609 5612 5615 5618 5621 5624 5626 5629 5631 5633 5634 5635 5637 5638 5639 5641 5643 5645 5648 5651 5653 5656 5658 5660 5661 5662 5663 5662 5661
5582 5584 5586 5589 5592 5594 5595 5597 5598 5600 5602 5604 5606 5609 5612 5614 5617 5620 5622 5625 5626 5627 5629 5631 5633 5636 5637 5640 5643 5646 5648 5650 5652 5654 5655 5656 5656 5654
5571 5572 5574 5577 5580 5583 5585 5588 5590 5592 5594 5595 5596 5597 5599 5600 5602 5607 5611 5613 5615 5617 5620 5622 5625 5627 5629 5631 5634 5638 5640 5641 5642 5645 5647 5649 5649 5649
5558 5561 5563 5566 5568 5571 5575 5578 5580 5582 5584 5585 5586 5586 5587 5588 5590 5594 5598 5601 5604 5606 5609 5611 5614 5617 5620 5621 5623 5625 5627 5630 5632 5635 5639 5641 5642 5643
5546 5548 5551 5553 5555 5558 5563 5566 5568 5569 5572 5574 5576 5577 5578 5579 5580 5581 5585 5588 5591 5594 5596 5599 5603 5606 5607 5609 5611 5612 5614 5616 5621 5625 5629 5633 5634 5636
5534 5536 5538 5540 5543 5546 5549 5553 5555 5557 5560 5562 5565 5567 5568 5569 5569 5570 5572 5575 5578 5581 5584 5588 5591 5593 5595 5597 5600 5601 5604 5607 5610 5614 5619 5624 5628 5628
5524 5525 5527 5529 5531 5534 5537 5541 5544 5546 5549 5552 5555 5557 5559 5561 5561 5560 5561 5564 5567 5570 5573 5576 5580 5584 5585 5585 5586 5591 5595 5598 5601 5604 5608 5613 5618 5622
5514 5515 5517 5519 5521 5523 5526 5528 5532 5535 5538 5541 5545 5548 5549 5551 5552 5552 5552 5553 5556 5559 5562 5564 5567 5571 5573 5575 5577 5579 5583 5588 5593 5597 5599 5602 5606 5612
5502 5503 5505 5507 5510 5513 5515 5518 5521 5525 5528 5532 5534 5537 5539 5541 5542 5544 5544 5544 5545 5547 5550 5553 5555 5558 5562 5564 5567 5569 5572 5576 5581 5585 5588 5593 5599 5603
5484 5486 5488 5491 5495 5498 5502 5506 5510 5514 5518 5521 5524 5527 5530 5531 5534 5536 5536 5534 5534 5536 5539 5543 5544 5544 5546 5549 5553 5558 5561 5563 5567 5570 5575 5582 5588 5594
5465 5467 5469 5472 5476 5481 5485 5490 5495 5500 5504 5508 5512 5516 5520 5522 5524 5526 5527 5527 5526 5526 5529 5530 5529 5531 5534 5538 5541 5544 5548 5551 5555 5559 5562 5566 5571 5578
5448 5449 5450 5453 5456 5460 5465 5469 5475 5480 5485 5490 5495 5500 5505 5509 5512 5513 5514 5516 5517 5515 5515 5516 5516 5519 5522 5525 5527 5529 5532 5535 5540 5545 5551 5554 5558 5562